Sterling, IL

1:58 AM CST on December 15, 2019 (GMT -0600)
Whiteside County-Bittorf

Weather History for KSQI - November, 2019

Change the Weather History Date:

Saturday, November 16, 2019

  Actual Average Record
Temperature  
Mean Temperature 31 °F -  
Max Temperature 41 °F 45 °F 62 °F (2016)
Min Temperature 21 °F 29 °F 12 °F (1997)
Degree Days  
Heating Degree Days 34    
Moisture  
Dew Point 27 °F    
Average Humidity 87    
Maximum Humidity 96    
Minimum Humidity 67    
Precipitation  
Precipitation 0.00 in - - ()
Sea Level Pressure  
Sea Level Pressure 29.97 in    
Wind  
Wind Speed 4 mph ()    
Max Wind Speed 8 mph    
Max Gust Speed -    
Visibility 5.8 miles    
Events      
Averages and records for this station are not official NWS values.
T = Trace of Precipitation, MM = Missing Value Source: Averaged Metar Reports

Daily Weather History Graph

Daily Weather History Graph

Search for Another Location

Airport or City:

Astronomy

Nov. 16, 2019 Rise Set
Actual Time 6:48 AM CST 4:37 PM CST
Civil Twilight 6:18 AM CST 5:07 PM CST
Nautical Twilight 5:45 AM CST 5:41 PM CST
Astronomical Twilight 5:12 AM CST 6:14 PM CST
Moon 8:08 PM CST (11/16) 10:44 AM CST (11/16)
Length of Visible Light 10h 48m
Length of Day
9h 48m
Waning Gibbous, 82% of the Moon is Illuminated
Nov 16
Waning Gibbous
Nov 19
Last Quarter
Nov 26
New
Dec 4
First Quarter
Dec 11
Full

Hourly Weather History & Observations

Time (CST) Temp. Windchill Dew Point Humidity Pressure Visibility Wind Dir Wind Speed Gust Speed Precip Events Conditions
12:56 AM 23.0 °F 15.8 °F 21.0 °F 92% 30.01 in 4.0 mi East 5.8 mph - N/A   Clear
1:56 AM 23.0 °F 17.0 °F 21.9 °F 96% 30.01 in 4.0 mi East 4.6 mph - N/A   Clear
2:56 AM 24.1 °F - 23.0 °F 96% 30.01 in 5.0 mi Calm Calm - N/A   Clear
3:56 AM 23.0 °F - 21.9 °F 96% 30.01 in 4.0 mi Calm Calm - N/A   Clear
4:56 AM 23.0 °F 17.0 °F 21.9 °F 96% 30.01 in 4.0 mi East 4.6 mph - N/A   Clear
6:56 AM 21.9 °F 15.7 °F 21.0 °F 96% 30.01 in 2.5 mi East 4.6 mph - N/A   Clear
7:22 AM 23.0 °F 17.0 °F 21.2 °F 93% 30.40 in 3.0 mi East 4.6 mph - N/A   Clear
7:37 AM 23.0 °F 15.8 °F 21.2 °F 93% 30.40 in 2.5 mi East 5.8 mph - N/A   Clear
7:56 AM 25.0 °F 20.7 °F 24.1 °F 96% 30.01 in 2.5 mi East 3.5 mph - N/A   Clear
8:08 AM 26.6 °F 22.6 °F 24.8 °F 93% 30.40 in 3.0 mi East 3.5 mph - N/A   Clear
8:56 AM 32.0 °F 28.7 °F 30.9 °F 96% 30.01 in 3.0 mi East 3.5 mph - N/A   Clear
9:56 AM 37.0 °F 32.4 °F 30.9 °F 79% 30.00 in 5.0 mi ESE 5.8 mph - N/A   Haze
10:56 AM 37.9 °F 32.7 °F 30.9 °F 76% 29.98 in 7.0 mi SE 6.9 mph - N/A   Clear
11:56 AM 39.0 °F 34.8 °F 30.0 °F 70% 29.95 in 9.0 mi SE 5.8 mph - N/A   Clear
12:56 PM 39.9 °F 34.5 °F 30.9 °F 70% 29.92 in 9.0 mi ESE 8.1 mph - N/A   Clear
1:56 PM 41.0 °F 39.0 °F 30.9 °F 67% 29.90 in 10.0 mi Variable 3.5 mph - N/A   Clear
2:56 PM 41.0 °F 37.1 °F 30.9 °F 67% 29.87 in 9.0 mi ESE 5.8 mph - N/A   Clear
3:56 PM 39.9 °F 34.5 °F 30.0 °F 68% 29.85 in 9.0 mi ESE 8.1 mph - N/A   Clear
4:56 PM 35.1 °F 30.1 °F 30.0 °F 82% 29.85 in 6.0 mi East 5.8 mph - N/A   Haze
5:56 PM 32.0 °F 26.4 °F 28.9 °F 88% 29.84 in 6.0 mi East 5.8 mph - N/A   Clear
6:56 PM 30.9 °F 27.5 °F 28.9 °F 92% 29.83 in 7.0 mi ESE 3.5 mph - N/A   Clear
7:56 PM 30.0 °F 25.2 °F 28.0 °F 92% 29.82 in 6.0 mi ESE 4.6 mph - N/A   Clear
8:56 PM 30.0 °F 25.2 °F 28.0 °F 92% 29.81 in 5.0 mi ESE 4.6 mph - N/A   Clear
9:56 PM 30.9 °F 27.5 °F 28.9 °F 92% 29.81 in 6.0 mi East 3.5 mph - N/A   Clear
10:56 PM 32.0 °F 27.5 °F 30.0 °F 92% 29.80 in 8.0 mi ESE 4.6 mph - N/A   Clear
11:56 PM 33.1 °F 27.7 °F 30.0 °F 89% 29.80 in 10.0 mi SE 5.8 mph - N/A   Clear